Flag for Germany Weather past 2 weeks in Dillenburg, Hesse, Germany

Now
54 °F

Clear.


Feels Like: 54 °F
Forecast: 46 / 60 °F
Wind: 1 mph from Southwest

Location: Giessen

Current Time: Sep 3, 2015 at 2:59:48 AM

Latest Report: Sep 3, 2015 at 2:00 AM


Visibility: 13 mi

Pressure: 29.98 "Hg

Humidity: 95%

Dew point: 53 °F

Location of DillenburgLocation

Historic Weather in Dillenburg — Graph

°F

Dillenburg temperature yesterday

Maximum temperature yesterday: 67 °F (at 4:00 PM)
Minimum temperature yesterday: 48 °F (at 7:00 AM)
Average temperature yesterday: 57 °F

Past Weeks' High & Low Weather Summary

 TemperatureHumidityPressure
High90 °F (Aug 31, 4:00 PM)100% (Aug 21, 8:00 AM)30.30 "Hg (Aug 21, 8:00 AM)
Low48 °F (Sep 2, 7:00 AM)24% (Aug 31, 3:00 PM)29.65 "Hg (Aug 24, 5:00 PM)
Average66 °F72%30.00 "Hg
* Reported Aug 19 1:00 AM — Sep 3 1:00 AM, Dillenburg, Weather by CustomWeather, © 2015

Note: Actual official high and low records may vary slightly from our data, if they occured in-between our weather recording intervals... More about our weather records

Advertising

Dillenburg weather history for previous 24 hours

 ConditionsComfort  
Time TempWeatherWind HumidityBarometerVisibility
1:00 AM
Thu, Sep 3
56 °FOvercast.1 mph90%29.98 "Hg19 mi
11:00 PM
Wed, Sep 2
56 °FOvercast.1 mph88%29.99 "Hg25 mi
10:00 PM57 °FOvercast.2 mph86%30.00 "Hg28 mi
9:00 PM59 °FOvercast.1 mph82%30.00 "Hg31 mi
8:00 PM60 °FOvercast.3 mph75%29.98 "Hg37 mi
7:00 PM64 °FOvercast.No wind62%29.98 "Hg40 mi
6:00 PM66 °FScattered clouds.3 mph59%29.97 "Hg31 mi
5:00 PM67 °FScattered clouds.5 mph52%29.98 "Hg28 mi
4:00 PM67 °FPartly sunny.5 mph48%29.99 "Hg25 mi
3:00 PM66 °FScattered clouds.No wind56%30.00 "Hg31 mi
2:00 PM65 °FScattered clouds.3 mph61%30.02 "Hg19 mi
1:00 PM63 °FOvercast.3 mph65%30.04 "Hg25 mi
12:00 PM61 °FScattered clouds.2 mph71%30.06 "Hg14 mi
11:00 AM56 °FScattered clouds.1 mph82%30.07 "Hg9 mi
10:00 AM53 °FLow clouds.No wind94%30.07 "Hg4 mi
9:00 AM51 °FLow clouds.No wind100%30.07 "Hg1 mi
8:00 AM49 °FSunny.No wind99%30.09 "Hg3 mi
7:00 AM48 °FPassing clouds.2 mph100%30.08 "Hg0 mi
6:00 AM51 °FPassing clouds.2 mph100%30.07 "Hg0 mi
5:00 AM51 °FClear.1 mph100%30.08 "Hg1 mi
4:00 AM52 °FFog.2 mph97%30.07 "Hg3 mi
3:00 AM53 °FFog.2 mph97%30.07 "Hg4 mi
2:00 AM52 °FPassing clouds.2 mph97%30.06 "Hg5 mi
Weather by CustomWeather, © 2015

See weather overviewHow to use our weather pages